DW1970 Weather Reports


Display with metric or nautical units.
time (UTC)temp
F
wind
direction
speed
MPH
gust
MPH
rain 1hr
in
rain 24hr
in
rain mn
in
humidity
%
barometer
mb
20260902171511 59 344 0.0 1.0 0.00 0.15 0.15 97 1017.7
20260902170009 59 330 0.0 0.0 0.00 0.15 0.15 97 1017.6
20260902164508 59 346 0.0 0.0 0.01 0.16 0.15 97 1017.5
20260902163006 59 359 0.0 0.0 0.01 0.16 0.15 97 1017.2
20260902161506 59 338 0.0 0.0 0.01 0.16 0.15 97 1017.0
20260902160007 59 302 0.0 0.0 0.01 0.16 0.15 97 1017.0
20260902154505 59 267 0.0 0.0 0.00 0.15 0.14 97 1017.0
20260902153011 59 225 0.0 0.0 0.00 0.15 0.14 97 1017.1
20260902151503 59 231 0.0 0.0 0.00 0.15 0.14 97 1017.0
20260902150001 59 208 0.0 0.0 0.00 0.15 0.14 97 1016.9
20260902144603 59 220 0.0 0.0 0.00 0.15 0.14 97 1016.9
20260902143059 59 202 0.0 8.0 0.00 0.15 0.14 97 1016.6
20260902141557 59 208 0.0 12.0 0.00 0.15 0.14 97 1016.4
20260902140056 59 215 3.0 13.0 0.00 0.15 0.14 97 1016.1
20260902134557 59 220 0.0 9.0 0.00 0.16 0.14 97 1015.9
20260902133056 60 217 2.0 15.0 0.02 0.16 0.14 97 1015.9
20260902131555 60 220 6.0 15.0 0.03 0.16 0.14 97 1015.6
20260902130051 60 221 6.0 17.0 0.06 0.16 0.14 97 1015.5
20260902124550 60 216 2.0 16.0 0.06 0.16 0.14 97 1015.4
20260902123055 60 220 3.0 15.0 0.04 0.14 0.12 97 1015.5
20260902121545 60 223 1.0 12.0 0.08 0.13 0.11 97 1015.5
20260902120044 60 200 5.0 14.0 0.07 0.10 0.08 97 1015.5
20260902114544 60 213 0.0 11.0 0.07 0.10 0.08 97 1015.6
20260902113040 60 221 0.0 11.0 0.07 0.10 0.08 97 1015.7
20260902111540 60 223 2.0 13.0 0.02 0.05 0.03 96 1015.7
20260902110043 60 221 4.0 15.0 0.00 0.03 0.01 97 1015.5
20260902104536 60 214 6.0 15.0 0.00 0.03 0.01 96 1015.5
20260902103033 60 219 6.0 15.0 0.00 0.03 0.01 96 1015.6
20260902101536 60 198 2.0 14.0 0.00 0.03 0.01 96 1015.8
20260902100030 60 208 2.0 13.0 0.01 0.03 0.01 96 1016.0
20260902094530 60 218 1.0 9.0 0.01 0.04 0.01 95 1016.0
20260902093036 60 193 0.0 1.0 0.01 0.04 0.01 95 1016.0
20260902091527 60 198 0.0 1.0 0.01 0.04 0.01 95 1016.2
20260902090025 61 193 0.0 5.0 0.00 0.03 0.00 95 1016.3
20260902084525 61 204 0.0 7.0 0.00 0.03 0.00 95 1016.4
20260902083024 60 187 0.0 8.0 0.00 0.03 0.00 95 1016.5
20260902081524 60 181 0.0 8.0 0.00 0.03 0.00 96 1016.5
20260902080022 60 202 0.0 8.0 0.00 0.03 0.00 95 1016.5
20260902074525 60 214 0.0 0.0 0.00 0.03 0.00 95 1016.6
20260902073020 60 197 0.0 0.0 0.00 0.03 0.00 95 1016.4
20260902071519 60 176 0.0 1.0 0.00 0.03 0.00 95 1016.4
20260902070020 60 214 0.0 3.0 0.00 0.03 0.00 95 1016.5
20260902064516 60 206 0.0 7.0 0.00 0.03 0.03 96 1016.5
20260902063016 60 208 0.0 0.0 0.00 0.03 0.03 95 1016.4
20260902061536 60 206 0.0 0.0 0.00 0.03 0.03 95 1016.5
20260902060017 60 196 0.0 0.0 0.00 0.03 0.03 95 1016.6
20260902054517 59 196 0.0 0.0 0.00 0.03 0.03 95 1016.6
20260902053014 59 204 0.0 5.0 0.00 0.03 0.03 94 1016.5
20260902051513 58 199 0.0 2.0 0.00 0.03 0.03 94 1016.6
20260902050013 59 212 0.0 3.0 0.00 0.03 0.03 93 1016.4
20260902044513 59 144 0.0 0.0 0.00 0.03 0.03 94 1016.3
20260902043011 59 191 0.0 0.0 0.00 0.03 0.03 94 1016.4
20260902041511 59 197 0.0 0.0 0.00 0.03 0.03 94 1016.4
20260902040011 60 193 0.0 2.0 0.00 0.03 0.03 94 1016.3
20260902034512 60 360 0.0 0.0 0.00 0.03 0.03 94 1016.4
20260902033010 60 360 0.0 0.0 0.00 0.03 0.03 93 1016.2
20260902031509 61 360 0.0 0.0 0.00 0.03 0.03 93 1016.3
20260902030009 61 360 0.0 0.0 0.00 0.03 0.03 93 1016.4
20260902024509 61 360 0.0 0.0 0.00 0.03 0.03 93 1016.1
20260902023008 61 360 0.0 1.0 0.00 0.03 0.03 92 1015.8
20260902021507 61 354 0.0 1.0 0.00 0.03 0.03 93 1016.1
20260902020007 61 348 0.0 0.0 0.00 0.03 0.03 92 1016.0
20260902014507 61 356 0.0 0.0 0.00 0.03 0.03 92 1016.1
20260902013006 62 334 0.0 0.0 0.00 0.03 0.03 91 1016.3
20260902011514 62 343 0.0 0.0 0.00 0.03 0.03 91 1016.2
20260902010009 62 325 0.0 0.0 0.00 0.03 0.03 90 1016.3
20260902004506 63 304 0.0 0.0 0.00 0.03 0.03 89 1016.3
20260902003005 62 312 0.0 0.0 0.00 0.03 0.03 90 1016.3
20260902001505 62 310 0.0 0.0 0.00 0.03 0.03 88 1016.3
20260902000010 63 290 0.0 0.0 0.00 0.03 0.03 87 1016.3
20260901234505 63 292 0.0 0.0 0.00 0.03 0.03 87 1016.3
20260901233005 64 294 0.0 0.0 0.00 0.03 0.03 83 1016.4
20260901231503 65 291 0.0 0.0 0.00 0.03 0.03 82 1016.4
20260901230002 65 257 0.0 0.0 0.00 0.03 0.03 83 1016.3
20260901224502 66 277 0.0 5.0 0.00 0.03 0.03 81 1016.3
20260901223100 65 318 0.0 4.0 0.00 0.03 0.03 83 1016.4
20260901221609 65 311 0.0 3.0 0.00 0.03 0.03 84 1016.8
20260901220108 65 337 0.0 1.0 0.00 0.03 0.03 85 1016.8
20260901214559 64 311 0.0 1.0 0.00 0.03 0.03 86 1016.8
20260901213053 64 307 0.0 2.0 0.00 0.03 0.03 90 1016.7
20260901211553 62 287 0.0 0.0 0.00 0.03 0.03 92 1016.7
20260901210052 63 253 0.0 0.0 0.00 0.03 0.03 89 1016.6
20260901204551 64 272 0.0 0.0 0.00 0.03 0.03 89 1016.6
20260901203055 64 305 0.0 0.0 0.00 0.03 0.03 91 1016.4
20260901201546 62 298 0.0 0.0 0.00 0.03 0.03 93 1016.6
20260901200046 62 253 0.0 0.0 0.00 0.03 0.03 94 1016.9
20260901194546 62 244 0.0 0.0 0.00 0.03 0.03 94 1016.9
20260901193046 62 267 0.0 0.0 0.00 0.03 0.03 95 1016.8
20260901191556 61 239 0.0 2.0 0.00 0.03 0.03 96 1016.7
20260901190040 61 250 0.0 1.0 0.00 0.03 0.03 96 1016.7
20260901184545 61 296 0.0 2.0 0.00 0.03 0.03 97 1016.9
20260901183047 62 294 0.0 0.0 0.00 0.03 0.03 98 1016.7
20260901181535 60 234 0.0 0.0 0.00 0.03 0.03 97 1016.7
20260901180035 60 233 0.0 0.0 0.00 0.03 0.03 97 1016.6
20260901174536 60 283 0.0 0.0 0.00 0.03 0.03 97 1016.6
20260901173035 60 230 0.0 0.0 0.00 0.03 0.03 97 1016.3